Regional Weather Roundup
Issued by NWS Sterling, VA

Home | Current Version | Previous Version | Text Only | Print | Product List | Glossary On
Versions: 1 2 3 4 5 6 7 8 9 10 11 12 13 14 15 16 17 18 19 20 21 22 23 24 25 26 27 28 29 30 31 32 33 34 35 36 37 38 39 40 41 42 43 44 45 46 47 48 49 50
924
ASUS41 KLWX 242210
RWRLWX

REGIONAL WEATHER ROUNDUP
NATIONAL WEATHER SERVICE BALTIMORE MD/WASHINGTON DC
500 PM EST FRI FEB 24 2017

Note: "FAIR" indicates few or no clouds below 12,000 feet
with no significant weather and/or obstructions to visibility.
 TC=TEMPERATURE CELSIUS

 * =Non NWS site. Station does not report precipitation (e.g. rain,
    snow, etc.), thunder, or fog.

DCZ001-MDZ009-015-VAZ040>042-051-053>054-242300-
WASHINGTON METRO

CITY           SKY/WX    TMP DP  RH WIND       PRES   REMARKS
WASHINGTON NAT MOCLDY    69  53  56 S14       29.81F
DULLES         PTCLDY    73  50  44 SE13G23   29.79F
ANDREWS AFB    CLEAR     71  52  50 S14       29.81F
FT BELVOIR     CLEAR     73  52  48 SE9       29.80F
QUANTICO       CLEAR     60  51  72 S16       29.82F
COLLEGE PARK*  CLEAR     72  52  49 S9G17     29.80F
LEESBURG*      CLEAR     77  54  44 MISG      29.79F
MANASSAS*        N/A     74  52  46 S13       29.80F
GAITHERSBURG*  CLEAR     72  50  46 S12G21    29.84R

$$

MDZ006>007-011-014-242300-
BALTIMORE METRO

CITY           SKY/WX    TMP DP  RH WIND       PRES   REMARKS
BWI AIRPORT    PTCLDY    69  56  62 SE14G22   29.81F
MD SCIENCE CTR   N/A     70  54  56 MISG      29.82F
MARTIN STATE   PTCLDY    66  57  72 SE12      29.85F
ANNAPOLIS      CLEAR     68  56  65 S12       29.84S
FORT MEADE*    PTCLDY    68  54  60 SE13G21   29.84F

$$

MDZ012-015-019>023-242300-
MARYLAND EASTERN SHORE

CITY           SKY/WX    TMP DP  RH WIND       PRES   REMARKS
OCEAN CITY     PTCLDY    57  54  89 S5        29.91F
SALISBURY      PTCLDY    68  60  75 S9        29.88S
BAY BRIDGE AP* CLEAR     68  55  64 S10       29.84F
CAMBRIDGE*     CLEAR     70  57  64 S13       29.87S
EASTON*        PTCLDY    72  55  56 S13       29.90S

$$

MDZ017>025-242300-
SOUTHERN MARYLAND

CITY           SKY/WX    TMP DP  RH WIND       PRES   REMARKS
PATUXENT RIVER PTCLDY    60  55  83 SE9       29.86S
ST INIGOES     CLEAR     68  58  70 SE14G20   29.85S
LEONARDTOWN*   CLEAR     68  55  64 SE10      29.87S

$$

MDZ003>005-242300-
NORTH CENTRAL MARYLAND

CITY           SKY/WX    TMP DP  RH WIND       PRES   REMARKS
FREDERICK*     PTCLDY    75  54  46 S14G23    29.80F
HAGERSTOWN APT CLEAR     75  51  43 S16G25    29.75F
WESTMINSTER*   PTCLDY    73  55  53 SE14      29.80S

$$

MDZ501>502-242300-
WESTERN MARYLAND

CITY           SKY/WX    TMP DP  RH WIND       PRES   REMARKS
OAKLAND*       SUNNY     66  43  42 SE15      29.75F
CUMBERLAND*    SUNNY     79  46  31 SE9G17    29.73S

$$

VAZ025>031-242300-
SHENANDOAH VALLEY

CITY           SKY/WX    TMP DP  RH WIND       PRES   REMARKS
WINCHESTER*    SUNNY     72  50  46 S15G24    29.76F
FRONT ROYAL*   SUNNY     72  52  49 S12G20    29.75F
LURAY*         MOSUNNY   73  52  46 S10G16    29.77F
NEW MARKET*    SUNNY     73  48  41 S9        29.75F
STAUNTON*      MOSUNNY   71  51  49 S10G17    29.81S
WAYNESBORO*    SUNNY     71  49  45 S10G23    29.81F

$$

WVZ021-048>050-054>055-242300-
EASTERN WEST VIRGINIA PANHANDLE

CITY           SKY/WX    TMP DP  RH WIND       PRES   REMARKS
MARTINSBURG    SUNNY     74  50  42 SE13G21   29.74F
PETERSBURG*    SUNNY     77  50  39 SE13      29.71F

$$

VAZ036>039-050-242300-
CENTRAL FOOTHILLS

CITY           SKY/WX    TMP DP  RH WIND       PRES   REMARKS
CHARLOTTESVILL SUNNY     74  50  42 S17G24    29.79F
CULPEPER*      MOSUNNY   76  52  43 S14G20    29.80F
ORANGE*        SUNNY     73  50  43 SE7       29.81F
GORDONSVILLE*  SUNNY     74  52  45 SE9       29.80S
WARRENTON*     MOSUNNY   76  46  35 S10G16    29.79F

$$

VAZ055>057-242300-
NORTH AND CENTRAL PIEDMONT

CITY           SKY/WX    TMP DP  RH WIND       PRES   REMARKS
FREDERICKSBRG* MOSUNNY   75  53  46 S14G20    29.81F
STAFFORD*      SUNNY     73  52  47 SE9       29.85F

$$

NCZ024-NYZ072-PAZ021-071-VAZ022-071-242300-
OTHER REGIONAL OBSERVATIONS

CITY           SKY/WX    TMP DP  RH WIND       PRES   REMARKS
NEW YORK CITY  PTCLDY    65  52  62 S8        29.88F
PHILADELPHIA   MOCLDY    70  54  56 S10       29.86S
PITTSBURGH     CLOUDY    75  48  38 S13G22    29.62F
ROANOKE        MOSUNNY   72  50  45 S15       29.81F
RICHMOND       MOSUNNY   73  55  53 S10       29.84R
RALEIGH        MOSUNNY   76  52  43 SW7       29.83F

$$

ANZ530>537-242300-
MARINE OBSERVATIONS

STATION/POSITION TIME  TEMP    WIND        PRES
                       AIR SEA DIR/SP/G
                 (UTC) (F)     (DEG/KT/KT) (MB)
THOMAS PT LIGHT  2200   59 45  180/ 16/ 18   N/A
BALT KEY BRIDGE  2148   64     150/ 18/ 20 1009.7F
COVE POINT       2148   54     190/ 13/ 15 1011.8S
LEWISETTA        2148   67 53  160/ 15/ 20 1010.7R
SOLOMONS ISLAND  2148   58 47  130/ 12/ 13   N/A
PINEY POINT      2142          160/ 15/ 16   N/A

$$





USA.gov is the U.S. government's official web portal to all federal, state and local government web resources and services.